Time,TemperatureF,DewpointF,PressureIn,WindDirection,WindDirectionDegrees,WindSpeedMPH,WindSpeedGustMPH,Humidity,HourlyPrecipIn,Conditions,Clouds,dailyrainin,SolarRadiationWatts/m^2,SoftwareType,DateUTC
2013-03-14 00:02:00,46.8,36.7,30.16,West,273,0.0,1.0,68,0.00,,,0.00,0.0,meteohub,2013-03-14 04:02:00,
2013-03-14 00:05:00,46.8,36.7,30.16,West,273,0.0,1.0,68,0.00,,,0.00,0.0,meteohub,2013-03-14 04:05:00,
2013-03-14 00:08:00,46.6,36.1,30.16,West,273,0.0,1.0,67,0.00,,,0.00,0.0,meteohub,2013-03-14 04:08:00,
2013-03-14 00:14:00,46.2,36.3,30.17,West,273,0.0,0.0,68,0.00,,,0.00,0.0,meteohub,2013-03-14 04:14:00,
2013-03-14 00:20:00,46.0,36.1,30.17,West,273,0.0,0.0,68,0.00,,,0.00,0.0,meteohub,2013-03-14 04:20:00,
2013-03-14 00:27:00,45.9,36.3,30.18,West,273,0.0,1.0,69,0.00,,,0.00,0.0,meteohub,2013-03-14 04:27:00,
2013-03-14 00:33:00,45.3,35.8,30.18,West,273,0.0,1.0,69,0.00,,,0.00,0.0,meteohub,2013-03-14 04:33:00,
2013-03-14 00:39:00,45.1,35.6,30.18,West,273,0.0,1.0,69,0.00,,,0.00,0.0,meteohub,2013-03-14 04:39:00,
2013-03-14 00:45:00,45.0,35.4,30.18,West,273,0.0,1.0,69,0.00,,,0.00,0.0,meteohub,2013-03-14 04:45:00,
2013-03-14 00:52:00,44.8,35.2,30.18,West,273,0.0,1.0,69,0.00,,,0.00,0.0,meteohub,2013-03-14 04:52:00,
2013-03-14 00:57:00,44.6,35.1,30.18,West,273,0.0,1.0,69,0.00,,,0.00,0.0,meteohub,2013-03-14 04:57:00,
2013-03-14 01:02:00,44.4,34.9,30.18,West,273,0.0,1.0,69,0.00,,,0.00,0.0,meteohub,2013-03-14 05:02:00,
2013-03-14 01:07:00,44.2,34.7,30.18,West,273,0.0,0.0,69,0.00,,,0.00,0.0,meteohub,2013-03-14 05:07:00,
2013-03-14 01:12:00,44.1,34.5,30.18,West,273,0.0,0.0,69,0.00,,,0.00,0.0,meteohub,2013-03-14 05:12:00,
2013-03-14 01:19:00,43.9,34.7,30.18,West,273,0.0,0.0,70,0.00,,,0.00,0.0,meteohub,2013-03-14 05:19:00,
2013-03-14 01:26:00,43.5,34.7,30.19,West,273,0.0,0.0,71,0.00,,,0.00,0.0,meteohub,2013-03-14 05:26:00,
2013-03-14 01:32:00,43.2,34.3,30.18,West,273,0.0,0.0,71,0.00,,,0.00,0.0,meteohub,2013-03-14 05:32:00,
2013-03-14 01:37:00,43.0,33.8,30.19,West,273,0.0,1.0,70,0.00,,,0.00,0.0,meteohub,2013-03-14 05:37:00,
2013-03-14 01:42:00,42.8,34.0,30.19,West,273,0.0,1.0,71,0.00,,,0.00,0.0,meteohub,2013-03-14 05:42:00,
2013-03-14 01:47:00,42.6,33.8,30.19,West,273,0.0,1.0,71,0.00,,,0.00,0.0,meteohub,2013-03-14 05:47:00,
2013-03-14 01:54:00,42.4,33.6,30.19,West,273,0.0,0.0,71,0.00,,,0.00,0.0,meteohub,2013-03-14 05:54:00,
2013-03-14 02:00:00,42.3,33.8,30.19,West,273,0.0,0.0,72,0.00,,,0.00,0.0,meteohub,2013-03-14 06:00:00,
2013-03-14 02:06:00,42.1,33.8,30.19,West,273,0.0,0.0,72,0.00,,,0.00,0.0,meteohub,2013-03-14 06:06:00,
2013-03-14 02:12:00,41.9,33.3,30.19,West,273,0.0,0.0,71,0.00,,,0.00,0.0,meteohub,2013-03-14 06:12:00,
2013-03-14 02:17:00,41.5,32.5,30.19,West,273,1.0,0.0,70,0.00,,,0.00,0.0,meteohub,2013-03-14 06:17:00,
2013-03-14 02:22:00,41.5,32.2,30.20,West,273,0.0,0.0,69,0.00,,,0.00,0.0,meteohub,2013-03-14 06:22:00,
2013-03-14 02:27:00,41.5,31.8,30.20,West,273,0.0,2.0,68,0.00,,,0.00,0.0,meteohub,2013-03-14 06:27:00,
2013-03-14 02:32:00,41.5,31.5,30.20,West,272,2.0,2.0,67,0.00,,,0.00,0.0,meteohub,2013-03-14 06:32:00,
2013-03-14 02:37:00,41.9,30.9,30.21,WSW,250,0.0,2.0,65,0.00,,,0.00,0.0,meteohub,2013-03-14 06:37:00,
2013-03-14 02:43:00,42.3,30.9,30.20,West,278,1.0,3.0,64,0.00,,,0.00,0.0,meteohub,2013-03-14 06:43:00,
2013-03-14 02:49:00,42.8,30.7,30.20,West,263,0.0,3.0,62,0.00,,,0.00,0.0,meteohub,2013-03-14 06:49:00,
2013-03-14 02:56:00,43.2,30.2,30.19,West,266,0.0,3.0,60,0.00,,,0.00,0.0,meteohub,2013-03-14 06:56:00,
2013-03-14 03:02:00,43.5,29.7,30.19,SSW,201,0.0,3.0,58,0.00,,,0.00,0.0,meteohub,2013-03-14 07:02:00,
2013-03-14 03:07:00,43.7,30.4,30.19,SE,136,0.0,5.0,59,0.00,,,0.00,0.0,meteohub,2013-03-14 07:07:00,
2013-03-14 03:12:00,43.9,30.0,30.19,SE,142,0.0,5.0,58,0.00,,,0.00,0.0,meteohub,2013-03-14 07:12:00,
2013-03-14 03:17:00,43.9,30.6,30.19,SE,142,0.0,2.0,59,0.00,,,0.00,0.0,meteohub,2013-03-14 07:17:00,
2013-03-14 03:23:00,43.9,30.0,30.19,WSW,258,0.0,3.0,58,0.00,,,0.00,0.0,meteohub,2013-03-14 07:23:00,
2013-03-14 03:30:00,43.7,29.5,30.19,WSW,258,1.0,3.0,57,0.00,,,0.00,0.0,meteohub,2013-03-14 07:30:00,
2013-03-14 03:36:00,43.7,29.5,30.19,SW,233,0.0,3.0,57,0.00,,,0.00,0.0,meteohub,2013-03-14 07:36:00,
2013-03-14 03:42:00,43.7,29.5,30.19,WSW,250,0.0,3.0,57,0.00,,,0.00,0.0,meteohub,2013-03-14 07:42:00,
2013-03-14 03:47:00,43.7,29.5,30.19,WSW,252,0.0,3.0,57,0.00,,,0.00,0.0,meteohub,2013-03-14 07:47:00,
2013-03-14 03:52:00,43.7,29.5,30.19,WSW,252,2.0,3.0,57,0.00,,,0.00,0.0,meteohub,2013-03-14 07:52:00,
2013-03-14 03:57:00,43.5,29.3,30.19,WSW,252,0.0,3.0,57,0.00,,,0.00,0.0,meteohub,2013-03-14 07:57:00,
2013-03-14 04:02:00,43.5,29.7,30.19,WSW,253,0.0,3.0,58,0.00,,,0.00,0.0,meteohub,2013-03-14 08:02:00,
2013-03-14 04:07:00,43.3,29.5,30.19,WSW,253,0.0,3.0,58,0.00,,,0.00,0.0,meteohub,2013-03-14 08:07:00,
2013-03-14 04:12:00,43.3,30.0,30.19,WSW,253,0.0,3.0,59,0.00,,,0.00,0.0,meteohub,2013-03-14 08:12:00,
2013-03-14 04:17:00,43.2,29.8,30.20,WSW,253,0.0,3.0,59,0.00,,,0.00,0.0,meteohub,2013-03-14 08:17:00,
2013-03-14 04:22:00,42.8,29.8,30.20,WSW,253,0.0,3.0,60,0.00,,,0.00,0.0,meteohub,2013-03-14 08:22:00,
2013-03-14 04:27:00,42.4,29.5,30.21,WSW,253,0.0,0.0,60,0.00,,,0.00,0.0,meteohub,2013-03-14 08:27:00,
2013-03-14 04:32:00,42.1,29.7,30.20,WSW,253,0.0,0.0,61,0.00,,,0.00,0.0,meteohub,2013-03-14 08:32:00,
2013-03-14 04:37:00,41.7,29.3,30.21,WSW,254,0.0,1.0,61,0.00,,,0.00,0.0,meteohub,2013-03-14 08:37:00,
2013-03-14 04:42:00,41.4,29.3,30.21,WSW,254,0.0,1.0,62,0.00,,,0.00,0.0,meteohub,2013-03-14 08:42:00,
2013-03-14 04:47:00,41.2,29.5,30.21,WSW,254,0.0,2.0,63,0.00,,,0.00,0.0,meteohub,2013-03-14 08:47:00,
2013-03-14 04:54:00,40.8,29.1,30.21,WSW,254,0.0,2.0,63,0.00,,,0.00,0.0,meteohub,2013-03-14 08:54:00,
2013-03-14 05:00:00,40.5,29.3,30.21,WSW,254,0.0,1.0,64,0.00,,,0.00,0.0,meteohub,2013-03-14 09:00:00,
2013-03-14 05:06:00,40.3,29.5,30.21,WSW,254,0.0,1.0,65,0.00,,,0.00,0.0,meteohub,2013-03-14 09:06:00,
2013-03-14 05:12:00,39.9,29.5,30.21,WSW,254,0.0,1.0,66,0.00,,,0.00,0.0,meteohub,2013-03-14 09:12:00,
2013-03-14 05:19:00,39.7,29.3,30.22,WSW,254,0.0,1.0,66,0.00,,,0.00,0.0,meteohub,2013-03-14 09:19:00,
2013-03-14 05:25:00,39.6,29.1,30.21,WSW,254,0.0,1.0,66,0.00,,,0.00,0.0,meteohub,2013-03-14 09:25:00,
2013-03-14 05:31:00,39.2,29.1,30.22,WSW,254,0.0,1.0,67,0.00,,,0.00,0.0,meteohub,2013-03-14 09:31:00,
2013-03-14 05:37:00,39.0,28.9,30.22,WSW,254,0.0,1.0,67,0.00,,,0.00,0.0,meteohub,2013-03-14 09:37:00,
2013-03-14 05:42:00,38.8,29.1,30.22,WSW,254,0.0,0.0,68,0.00,,,0.00,0.0,meteohub,2013-03-14 09:42:00,
2013-03-14 05:47:00,38.7,28.9,30.22,WSW,254,0.0,0.0,68,0.00,,,0.00,0.0,meteohub,2013-03-14 09:47:00,
2013-03-14 05:53:00,38.3,28.8,30.22,WSW,254,0.0,0.0,68,0.00,,,0.00,0.0,meteohub,2013-03-14 09:53:00,
2013-03-14 05:59:00,38.1,29.1,30.23,WSW,253,0.0,0.0,70,0.00,,,0.00,0.0,meteohub,2013-03-14 09:59:00,
2013-03-14 06:05:00,37.8,29.1,30.24,WSW,254,0.0,0.0,71,0.00,,,0.00,0.0,meteohub,2013-03-14 10:05:00,
2013-03-14 06:12:00,37.6,29.3,30.23,WSW,254,0.0,0.0,72,0.00,,,0.00,0.0,meteohub,2013-03-14 10:12:00,
2013-03-14 06:17:00,37.2,29.1,30.24,WSW,254,0.0,0.0,72,0.00,,,0.00,0.0,meteohub,2013-03-14 10:17:00,
2013-03-14 06:22:00,37.0,29.1,30.24,WSW,253,0.0,1.0,73,0.00,,,0.00,0.0,meteohub,2013-03-14 10:22:00,
2013-03-14 06:27:00,36.7,28.8,30.25,WSW,254,0.0,1.0,73,0.00,,,0.00,0.0,meteohub,2013-03-14 10:27:00,
2013-03-14 06:32:00,36.3,28.8,30.25,WSW,253,0.0,1.0,74,0.00,,,0.00,0.0,meteohub,2013-03-14 10:32:00,
2013-03-14 06:37:00,36.1,28.9,30.25,WSW,253,0.0,0.0,75,0.00,,,0.00,0.0,meteohub,2013-03-14 10:37:00,
2013-03-14 06:42:00,35.8,28.9,30.25,SE,138,0.0,0.0,76,0.00,,,0.00,0.0,meteohub,2013-03-14 10:42:00,
2013-03-14 06:47:00,35.8,28.9,30.25,NNE,30,0.0,0.0,76,0.00,,,0.00,0.0,meteohub,2013-03-14 10:47:00,
2013-03-14 06:52:00,36.0,28.8,30.25,NE,53,1.0,2.0,75,0.00,,,0.00,0.0,meteohub,2013-03-14 10:52:00,
2013-03-14 06:57:00,36.3,28.6,30.25,ENE,64,0.0,2.0,73,0.00,,,0.00,0.0,meteohub,2013-03-14 10:57:00,
2013-03-14 07:02:00,36.7,28.6,30.26,ENE,64,0.0,2.0,72,0.00,,,0.00,0.0,meteohub,2013-03-14 11:02:00,
2013-03-14 07:07:00,36.9,28.8,30.26,ENE,64,0.0,2.0,72,0.00,,,0.00,0.0,meteohub,2013-03-14 11:07:00,
2013-03-14 07:12:00,37.0,28.6,30.26,North,11,0.0,3.0,71,0.00,,,0.00,0.0,meteohub,2013-03-14 11:12:00,
2013-03-14 07:17:00,37.0,28.2,30.27,North,11,0.0,3.0,70,0.00,,,0.00,0.0,meteohub,2013-03-14 11:17:00,
2013-03-14 07:23:00,37.2,28.4,30.27,NNE,13,0.0,3.0,70,0.00,,,0.00,0.0,meteohub,2013-03-14 11:23:00,
2013-03-14 07:29:00,37.2,28.4,30.27,NNE,13,0.0,3.0,70,0.00,,,0.00,0.0,meteohub,2013-03-14 11:29:00,
2013-03-14 07:35:00,37.2,28.0,30.27,NNE,13,0.0,2.0,69,0.00,,,0.00,0.0,meteohub,2013-03-14 11:35:00,
2013-03-14 07:42:00,37.0,27.9,30.27,NNW,338,0.0,1.0,69,0.00,,,0.00,5.0,meteohub,2013-03-14 11:42:00,
2013-03-14 07:47:00,37.0,27.9,30.27,NNW,338,0.0,1.0,69,0.00,,,0.00,9.0,meteohub,2013-03-14 11:47:00,
2013-03-14 07:52:00,36.9,27.7,30.27,NNW,338,0.0,1.0,69,0.00,,,0.00,12.0,meteohub,2013-03-14 11:52:00,
2013-03-14 07:57:00,36.9,27.7,30.27,NNW,338,0.0,0.0,69,0.00,,,0.00,16.0,meteohub,2013-03-14 11:57:00,
2013-03-14 08:02:00,36.7,27.9,30.28,NNW,338,0.0,0.0,70,0.00,,,0.00,19.0,meteohub,2013-03-14 12:02:00,
2013-03-14 08:07:00,36.7,27.9,30.28,NNW,338,0.0,0.0,70,0.00,,,0.00,21.0,meteohub,2013-03-14 12:07:00,
2013-03-14 08:12:00,36.5,27.7,30.29,NNW,338,0.0,1.0,70,0.00,,,0.00,25.0,meteohub,2013-03-14 12:12:00,
2013-03-14 08:17:00,36.5,28.0,30.29,NNW,338,0.0,1.0,71,0.00,,,0.00,26.0,meteohub,2013-03-14 12:17:00,
2013-03-14 08:22:00,36.5,28.0,30.29,NNW,338,0.0,1.0,71,0.00,,,0.00,47.0,meteohub,2013-03-14 12:22:00,
2013-03-14 08:27:00,36.9,28.4,30.29,NW,309,0.0,1.0,71,0.00,,,0.00,42.0,meteohub,2013-03-14 12:27:00,
2013-03-14 08:32:00,37.0,28.2,30.29,NW,309,0.0,1.0,70,0.00,,,0.00,39.0,meteohub,2013-03-14 12:32:00,
2013-03-14 08:37:00,37.0,28.2,30.29,NW,309,0.0,1.0,70,0.00,,,0.00,47.0,meteohub,2013-03-14 12:37:00,
2013-03-14 08:42:00,37.2,28.4,30.30,NW,309,0.0,1.0,70,0.00,,,0.00,53.0,meteohub,2013-03-14 12:42:00,
2013-03-14 08:47:00,37.8,28.9,30.29,East,84,0.0,1.0,70,0.00,,,0.00,46.0,meteohub,2013-03-14 12:47:00,
2013-03-14 08:52:00,38.1,28.6,30.30,NW,319,0.0,1.0,68,0.00,,,0.00,54.0,meteohub,2013-03-14 12:52:00,
2013-03-14 08:57:00,39.4,29.3,30.30,WNW,283,0.0,3.0,67,0.00,,,0.00,49.0,meteohub,2013-03-14 12:57:00,
2013-03-14 09:02:00,40.3,28.8,30.31,NW,315,6.0,6.0,63,0.00,,,0.00,54.0,meteohub,2013-03-14 13:02:00,
2013-03-14 09:07:00,40.6,28.6,30.31,East,79,0.0,3.0,62,0.00,,,0.00,47.0,meteohub,2013-03-14 13:07:00,
2013-03-14 09:12:00,40.8,28.4,30.31,ENE,65,2.0,7.0,61,0.00,,,0.00,114.0,meteohub,2013-03-14 13:12:00,
2013-03-14 09:18:00,41.4,28.6,30.31,WNW,284,0.0,7.0,60,0.00,,,0.00,193.0,meteohub,2013-03-14 13:18:00,
2013-03-14 09:25:00,42.3,28.6,30.32,ENE,72,2.0,7.0,58,0.00,,,0.00,267.0,meteohub,2013-03-14 13:25:00,
2013-03-14 09:31:00,42.4,27.9,30.32,NNW,338,2.0,10.0,56,0.00,,,0.00,214.0,meteohub,2013-03-14 13:31:00,
2013-03-14 09:37:00,42.8,28.2,30.31,ENE,57,2.0,10.0,56,0.00,,,0.00,185.0,meteohub,2013-03-14 13:37:00,
2013-03-14 09:42:00,43.3,28.2,30.32,NE,49,1.0,10.0,55,0.00,,,0.00,151.0,meteohub,2013-03-14 13:42:00,
2013-03-14 09:49:00,43.5,28.4,30.32,ENE,61,2.0,6.0,55,0.00,,,0.00,113.0,meteohub,2013-03-14 13:49:00,
2013-03-14 09:55:00,44.1,28.4,30.32,ENE,57,4.0,4.0,54,0.00,,,0.00,123.0,meteohub,2013-03-14 13:55:00,
2013-03-14 10:01:00,44.2,28.2,30.32,NNE,28,0.0,4.0,53,0.00,,,0.00,84.0,meteohub,2013-03-14 14:01:00,
2013-03-14 10:07:00,44.2,27.3,30.32,NE,47,0.0,7.0,51,0.00,,,0.00,141.0,meteohub,2013-03-14 14:07:00,
2013-03-14 10:12:00,44.8,28.2,30.32,East,82,2.0,7.0,52,0.00,,,0.00,200.0,meteohub,2013-03-14 14:12:00,
2013-03-14 10:17:00,44.8,27.7,30.32,NW,314,0.0,9.0,51,0.00,,,0.00,111.0,meteohub,2013-03-14 14:17:00,
2013-03-14 10:22:00,45.0,27.9,30.32,NNE,27,0.0,9.0,51,0.00,,,0.00,181.0,meteohub,2013-03-14 14:22:00,
2013-03-14 10:30:00,45.1,27.7,30.32,NE,46,2.0,10.0,50,0.00,,,0.00,445.0,meteohub,2013-03-14 14:30:00,
2013-03-14 10:36:00,45.9,28.8,30.32,NE,37,2.0,10.0,51,0.00,,,0.00,422.0,meteohub,2013-03-14 14:36:00,
2013-03-14 10:42:00,46.6,29.5,30.32,NNW,332,0.0,10.0,51,0.00,,,0.00,427.0,meteohub,2013-03-14 14:42:00,
2013-03-14 10:47:00,46.0,27.9,30.32,NE,40,0.0,6.0,49,0.00,,,0.00,575.0,meteohub,2013-03-14 14:47:00,
2013-03-14 10:52:00,46.8,29.1,30.32,East,84,2.0,6.0,50,0.00,,,0.00,626.0,meteohub,2013-03-14 14:52:00,
2013-03-14 10:58:00,46.8,28.6,30.32,NE,50,4.0,6.0,49,0.00,,,0.00,622.0,meteohub,2013-03-14 14:58:00,
2013-03-14 11:04:00,47.3,29.1,30.32,ENE,59,6.0,6.0,49,0.00,,,0.00,659.0,meteohub,2013-03-14 15:04:00,
2013-03-14 11:10:00,47.7,28.9,30.31,NE,44,0.0,10.0,48,0.00,,,0.00,675.0,meteohub,2013-03-14 15:10:00,
2013-03-14 11:16:00,48.0,29.3,30.32,NW,319,4.0,10.0,48,0.00,,,0.00,689.0,meteohub,2013-03-14 15:16:00,
2013-03-14 11:22:00,48.2,29.5,30.31,WNW,292,2.0,10.0,48,0.00,,,0.00,707.0,meteohub,2013-03-14 15:22:00,
2013-03-14 11:27:00,48.6,28.2,30.31,NE,56,2.0,5.0,45,0.00,,,0.00,721.0,meteohub,2013-03-14 15:27:00,
2013-03-14 11:32:00,48.6,28.8,30.31,NE,38,0.0,5.0,46,0.00,,,0.00,731.0,meteohub,2013-03-14 15:32:00,
2013-03-14 11:37:00,49.3,29.3,30.31,WSW,242,5.0,5.0,46,0.00,,,0.00,745.0,meteohub,2013-03-14 15:37:00,
2013-03-14 11:44:00,50.4,29.8,30.31,West,271,1.0,9.0,45,0.00,,,0.00,759.0,meteohub,2013-03-14 15:44:00,
2013-03-14 11:50:00,50.2,29.7,30.31,NE,36,1.0,9.0,45,0.00,,,0.00,773.0,meteohub,2013-03-14 15:50:00,
2013-03-14 11:56:00,49.5,28.9,30.32,NNW,348,1.0,6.0,45,0.00,,,0.00,788.0,meteohub,2013-03-14 15:56:00,
2013-03-14 12:02:00,50.5,30.0,30.32,ENE,63,1.0,6.0,45,0.00,,,0.00,795.0,meteohub,2013-03-14 16:02:00,
2013-03-14 12:07:00,50.5,28.2,30.32,West,281,2.0,5.0,42,0.00,,,0.00,805.0,meteohub,2013-03-14 16:07:00,
2013-03-14 12:12:00,49.5,27.3,30.32,North,355,0.0,5.0,42,0.00,,,0.00,812.0,meteohub,2013-03-14 16:12:00,
2013-03-14 12:17:00,50.7,29.1,30.32,ENE,57,3.0,9.0,43,0.00,,,0.00,821.0,meteohub,2013-03-14 16:17:00,
2013-03-14 12:22:00,51.1,29.3,30.31,NE,38,0.0,9.0,43,0.00,,,0.00,830.0,meteohub,2013-03-14 16:22:00,
2013-03-14 12:27:00,50.7,29.1,30.31,West,269,1.0,6.0,43,0.00,,,0.00,837.0,meteohub,2013-03-14 16:27:00,
2013-03-14 12:32:00,52.2,29.8,30.31,SW,227,6.0,6.0,42,0.00,,,0.00,844.0,meteohub,2013-03-14 16:32:00,
2013-03-14 12:37:00,51.8,29.5,30.30,West,279,0.0,6.0,42,0.00,,,0.00,853.0,meteohub,2013-03-14 16:37:00,
2013-03-14 12:42:00,51.8,28.8,30.30,West,281,2.0,7.0,41,0.00,,,0.00,856.0,meteohub,2013-03-14 16:42:00,
2013-03-14 12:47:00,53.1,29.3,30.30,WNW,285,1.0,7.0,40,0.00,,,0.00,861.0,meteohub,2013-03-14 16:47:00,
2013-03-14 12:52:00,53.1,31.1,30.30,WSW,258,0.0,7.0,43,0.00,,,0.00,867.0,meteohub,2013-03-14 16:52:00,
2013-03-14 12:58:00,52.9,29.8,30.30,NNW,344,3.0,9.0,41,0.00,,,0.00,870.0,meteohub,2013-03-14 16:58:00,
2013-03-14 13:04:00,54.1,29.7,30.30,West,271,4.0,9.0,39,0.00,,,0.00,877.0,meteohub,2013-03-14 17:04:00,
2013-03-14 13:10:00,54.7,30.9,30.29,NW,304,2.0,9.0,40,0.00,,,0.00,882.0,meteohub,2013-03-14 17:10:00,
2013-03-14 13:17:00,53.8,30.6,30.29,West,262,4.0,9.0,41,0.00,,,0.00,886.0,meteohub,2013-03-14 17:17:00,
2013-03-14 13:23:00,53.6,31.6,30.29,NW,310,2.0,9.0,43,0.00,,,0.00,888.0,meteohub,2013-03-14 17:23:00,
2013-03-14 13:29:00,54.9,30.4,30.29,NE,38,1.0,7.0,39,0.00,,,0.00,893.0,meteohub,2013-03-14 17:29:00,
2013-03-14 13:35:00,54.7,30.2,30.28,WNW,285,2.0,8.0,39,0.00,,,0.00,891.0,meteohub,2013-03-14 17:35:00,
2013-03-14 13:41:00,55.8,31.1,30.28,West,281,0.0,8.0,39,0.00,,,0.00,889.0,meteohub,2013-03-14 17:41:00,
2013-03-14 13:47:00,55.4,30.9,30.27,West,275,0.0,5.0,39,0.00,,,0.00,895.0,meteohub,2013-03-14 17:47:00,
2013-03-14 13:54:00,56.1,30.2,30.27,NE,34,1.0,8.0,37,0.00,,,0.00,893.0,meteohub,2013-03-14 17:54:00,
2013-03-14 14:00:00,54.7,29.5,30.26,WSW,242,0.0,8.0,38,0.00,,,0.00,889.0,meteohub,2013-03-14 18:00:00,
2013-03-14 14:06:00,56.1,31.5,30.27,NE,47,1.0,8.0,39,0.00,,,0.00,888.0,meteohub,2013-03-14 18:06:00,
2013-03-14 14:12:00,55.9,30.0,30.26,ENE,70,1.0,8.0,37,0.00,,,0.00,886.0,meteohub,2013-03-14 18:12:00,
2013-03-14 14:17:00,55.9,33.8,30.26,West,277,6.0,6.0,43,0.00,,,0.00,881.0,meteohub,2013-03-14 18:17:00,
2013-03-14 14:25:00,55.8,29.8,30.25,SW,225,0.0,7.0,37,0.00,,,0.00,874.0,meteohub,2013-03-14 18:25:00,
2013-03-14 14:31:00,56.7,32.0,30.25,North,355,0.0,7.0,39,0.00,,,0.00,868.0,meteohub,2013-03-14 18:31:00,
2013-03-14 14:37:00,56.5,30.6,30.24,WNW,298,2.0,7.0,37,0.00,,,0.00,863.0,meteohub,2013-03-14 18:37:00,
2013-03-14 14:42:00,56.8,30.2,30.24,WNW,290,0.0,7.0,36,0.00,,,0.00,858.0,meteohub,2013-03-14 18:42:00,
2013-03-14 14:47:00,57.6,30.0,30.25,East,81,1.0,4.0,35,0.00,,,0.00,851.0,meteohub,2013-03-14 18:47:00,
2013-03-14 14:52:00,57.6,30.0,30.24,East,88,0.0,4.0,35,0.00,,,0.00,847.0,meteohub,2013-03-14 18:52:00,
2013-03-14 14:57:00,57.4,31.3,30.24,NNE,17,4.0,9.0,37,0.00,,,0.00,837.0,meteohub,2013-03-14 18:57:00,
2013-03-14 15:02:00,57.6,32.2,30.25,SW,236,0.0,9.0,38,0.00,,,0.00,830.0,meteohub,2013-03-14 19:02:00,
2013-03-14 15:09:00,58.3,31.5,30.24,West,272,4.0,9.0,36,0.00,,,0.00,819.0,meteohub,2013-03-14 19:09:00,
2013-03-14 15:15:00,58.1,31.3,30.24,ENE,76,4.0,6.0,36,0.00,,,0.00,807.0,meteohub,2013-03-14 19:15:00,
2013-03-14 15:21:00,58.6,31.8,30.24,West,271,4.0,6.0,36,0.00,,,0.00,796.0,meteohub,2013-03-14 19:21:00,
2013-03-14 15:27:00,58.3,32.2,30.23,West,271,5.0,6.0,37,0.00,,,0.00,782.0,meteohub,2013-03-14 19:27:00,
2013-03-14 15:32:00,58.6,31.8,30.23,West,266,0.0,6.0,36,0.00,,,0.00,770.0,meteohub,2013-03-14 19:32:00,
2013-03-14 15:37:00,58.3,30.7,30.23,North,11,1.0,7.0,35,0.00,,,0.00,761.0,meteohub,2013-03-14 19:37:00,
2013-03-14 15:42:00,58.6,31.8,30.23,NW,326,3.0,7.0,36,0.00,,,0.00,749.0,meteohub,2013-03-14 19:42:00,
2013-03-14 15:47:00,58.6,31.1,30.23,NE,38,1.0,7.0,35,0.00,,,0.00,742.0,meteohub,2013-03-14 19:47:00,
2013-03-14 15:52:00,57.9,28.9,30.22,NE,50,0.0,7.0,33,0.00,,,0.00,728.0,meteohub,2013-03-14 19:52:00,
2013-03-14 15:58:00,58.3,31.5,30.22,WNW,288,1.0,6.0,36,0.00,,,0.00,712.0,meteohub,2013-03-14 19:58:00,
2013-03-14 16:04:00,58.5,30.9,30.22,WNW,286,2.0,9.0,35,0.00,,,0.00,698.0,meteohub,2013-03-14 20:04:00,
2013-03-14 16:10:00,58.5,29.5,30.22,East,88,1.0,9.0,33,0.00,,,0.00,684.0,meteohub,2013-03-14 20:10:00,
2013-03-14 16:17:00,59.0,30.7,30.22,ENE,76,0.0,9.0,34,0.00,,,0.00,668.0,meteohub,2013-03-14 20:17:00,
2013-03-14 16:22:00,59.5,34.0,30.21,NW,308,0.0,9.0,38,0.00,,,0.00,650.0,meteohub,2013-03-14 20:22:00,
2013-03-14 16:27:00,59.7,31.3,30.21,West,273,1.0,7.0,34,0.00,,,0.00,636.0,meteohub,2013-03-14 20:27:00,
2013-03-14 16:32:00,59.2,31.5,30.21,West,280,4.0,7.0,35,0.00,,,0.00,621.0,meteohub,2013-03-14 20:32:00,
2013-03-14 16:38:00,59.5,31.8,30.21,West,273,1.0,5.0,35,0.00,,,0.00,605.0,meteohub,2013-03-14 20:38:00,
2013-03-14 16:44:00,59.9,31.5,30.22,NE,52,2.0,5.0,34,0.00,,,0.00,580.0,meteohub,2013-03-14 20:44:00,
2013-03-14 16:50:00,59.2,31.5,30.21,NW,307,1.0,6.0,35,0.00,,,0.00,563.0,meteohub,2013-03-14 20:50:00,
2013-03-14 16:57:00,58.6,31.1,30.21,NE,50,2.0,6.0,35,0.00,,,0.00,543.0,meteohub,2013-03-14 20:57:00,
2013-03-14 17:02:00,57.9,31.1,30.21,ENE,66,0.0,6.0,36,0.00,,,0.00,526.0,meteohub,2013-03-14 21:02:00,
2013-03-14 17:09:00,58.3,30.7,30.20,NW,321,0.0,5.0,35,0.00,,,0.00,499.0,meteohub,2013-03-14 21:09:00,
2013-03-14 17:15:00,59.5,34.0,30.21,West,265,1.0,3.0,38,0.00,,,0.00,482.0,meteohub,2013-03-14 21:15:00,
2013-03-14 17:22:00,59.0,30.7,30.21,West,275,0.0,3.0,34,0.00,,,0.00,459.0,meteohub,2013-03-14 21:22:00,
2013-03-14 17:27:00,59.4,31.6,30.22,West,277,0.0,6.0,35,0.00,,,0.00,441.0,meteohub,2013-03-14 21:27:00,
2013-03-14 17:32:00,58.8,31.3,30.22,West,261,2.0,6.0,35,0.00,,,0.00,422.0,meteohub,2013-03-14 21:32:00,
2013-03-14 17:37:00,58.8,32.0,30.22,WNW,291,1.0,7.0,36,0.00,,,0.00,403.0,meteohub,2013-03-14 21:37:00,
2013-03-14 17:42:00,58.6,31.1,30.22,West,275,0.0,7.0,35,0.00,,,0.00,383.0,meteohub,2013-03-14 21:42:00,
2013-03-14 17:49:00,59.0,32.0,30.21,West,271,0.0,5.0,36,0.00,,,0.00,355.0,meteohub,2013-03-14 21:49:00,
2013-03-14 17:56:00,58.6,31.8,30.21,West,274,1.0,5.0,36,0.00,,,0.00,332.0,meteohub,2013-03-14 21:56:00,
2013-03-14 18:02:00,59.0,32.7,30.21,West,274,0.0,5.0,37,0.00,,,0.00,308.0,meteohub,2013-03-14 22:02:00,
2013-03-14 18:07:00,58.8,32.0,30.21,NNW,332,0.0,5.0,36,0.00,,,0.00,287.0,meteohub,2013-03-14 22:07:00,
2013-03-14 18:12:00,58.8,32.0,30.21,West,272,2.0,5.0,36,0.00,,,0.00,267.0,meteohub,2013-03-14 22:12:00,
2013-03-14 18:17:00,58.6,31.1,30.21,WSW,251,1.0,4.0,35,0.00,,,0.00,248.0,meteohub,2013-03-14 22:17:00,
2013-03-14 18:22:00,58.6,32.4,30.21,West,264,0.0,4.0,37,0.00,,,0.00,229.0,meteohub,2013-03-14 22:22:00,
2013-03-14 18:27:00,58.8,31.3,30.21,West,264,0.0,4.0,35,0.00,,,0.00,207.0,meteohub,2013-03-14 22:27:00,
2013-03-14 18:33:00,58.8,32.0,30.21,West,264,0.0,4.0,36,0.00,,,0.00,185.0,meteohub,2013-03-14 22:33:00,
2013-03-14 18:39:00,58.8,30.6,30.20,West,264,0.0,4.0,34,0.00,,,0.00,158.0,meteohub,2013-03-14 22:39:00,
2013-03-14 18:45:00,58.8,32.5,30.21,West,264,0.0,4.0,37,0.00,,,0.00,118.0,meteohub,2013-03-14 22:45:00,
2013-03-14 18:52:00,58.6,32.4,30.20,West,264,0.0,4.0,37,0.00,,,0.00,72.0,meteohub,2013-03-14 22:52:00,
2013-03-14 18:57:00,58.5,32.4,30.21,West,264,0.0,3.0,37,0.00,,,0.00,63.0,meteohub,2013-03-14 22:57:00,
2013-03-14 19:02:00,58.3,33.4,30.21,West,264,0.0,3.0,39,0.00,,,0.00,63.0,meteohub,2013-03-14 23:02:00,
2013-03-14 19:07:00,57.9,33.1,30.21,West,264,0.0,1.0,39,0.00,,,0.00,47.0,meteohub,2013-03-14 23:07:00,
2013-03-14 19:13:00,57.7,34.2,30.21,West,264,0.0,1.0,41,0.00,,,0.00,33.0,meteohub,2013-03-14 23:13:00,
2013-03-14 19:19:00,57.4,34.5,30.21,West,264,0.0,1.0,42,0.00,,,0.00,19.0,meteohub,2013-03-14 23:19:00,
2013-03-14 19:26:00,56.8,34.5,30.22,West,264,0.0,1.0,43,0.00,,,0.00,12.0,meteohub,2013-03-14 23:26:00,
2013-03-14 19:32:00,56.5,34.9,30.22,West,264,0.0,1.0,44,0.00,,,0.00,7.0,meteohub,2013-03-14 23:32:00,
2013-03-14 19:38:00,55.6,35.1,30.22,West,264,0.0,2.0,46,0.00,,,0.00,0.0,meteohub,2013-03-14 23:38:00,
2013-03-14 19:45:00,54.7,34.9,30.22,West,264,0.0,0.0,47,0.00,,,0.00,0.0,meteohub,2013-03-14 23:45:00,
2013-03-14 19:51:00,53.8,35.1,30.22,West,264,0.0,0.0,49,0.00,,,0.00,0.0,meteohub,2013-03-14 23:51:00,
2013-03-14 19:57:00,52.9,34.2,30.23,West,264,0.0,0.0,49,0.00,,,0.00,0.0,meteohub,2013-03-14 23:57:00,
2013-03-14 20:02:00,52.3,33.8,30.23,West,264,0.0,0.0,49,0.00,,,0.00,0.0,meteohub,2013-03-15 00:02:00,
2013-03-14 20:07:00,51.6,34.5,30.23,West,264,0.0,0.0,52,0.00,,,0.00,0.0,meteohub,2013-03-15 00:07:00,
2013-03-14 20:13:00,51.1,34.0,30.23,West,264,0.0,0.0,52,0.00,,,0.00,0.0,meteohub,2013-03-15 00:13:00,
2013-03-14 20:19:00,50.5,35.1,30.23,West,264,0.0,0.0,55,0.00,,,0.00,0.0,meteohub,2013-03-15 00:19:00,
2013-03-14 20:25:00,50.0,35.4,30.23,West,264,0.0,0.0,57,0.00,,,0.00,0.0,meteohub,2013-03-15 00:25:00,
2013-03-14 20:31:00,49.5,35.8,30.23,West,264,0.0,0.0,59,0.00,,,0.00,0.0,meteohub,2013-03-15 00:31:00,
2013-03-14 20:37:00,48.7,35.4,30.22,West,264,0.0,0.0,60,0.00,,,0.00,0.0,meteohub,2013-03-15 00:37:00,
2013-03-14 20:44:00,48.0,35.2,30.22,West,264,0.0,0.0,61,0.00,,,0.00,0.0,meteohub,2013-03-15 00:44:00,
2013-03-14 20:50:00,47.7,35.2,30.23,West,264,0.0,0.0,62,0.00,,,0.00,0.0,meteohub,2013-03-15 00:50:00,
2013-03-14 20:56:00,47.1,35.6,30.23,West,264,0.0,0.0,64,0.00,,,0.00,0.0,meteohub,2013-03-15 00:56:00,
2013-03-14 21:02:00,46.8,35.6,30.23,West,264,0.0,0.0,65,0.00,,,0.00,0.0,meteohub,2013-03-15 01:02:00,
2013-03-14 21:08:00,46.4,36.5,30.23,West,264,0.0,0.0,68,0.00,,,0.00,0.0,meteohub,2013-03-15 01:08:00,
2013-03-14 21:15:00,46.0,36.9,30.23,West,264,0.0,0.0,70,0.00,,,0.00,0.0,meteohub,2013-03-15 01:15:00,
2013-03-14 21:21:00,45.5,36.7,30.23,West,264,0.0,0.0,71,0.00,,,0.00,0.0,meteohub,2013-03-15 01:21:00,
2013-03-14 21:27:00,45.1,36.3,30.23,West,264,0.0,0.0,71,0.00,,,0.00,0.0,meteohub,2013-03-15 01:27:00,
2013-03-14 21:32:00,44.8,36.3,30.23,West,264,0.0,0.0,72,0.00,,,0.00,0.0,meteohub,2013-03-15 01:32:00,
2013-03-14 21:37:00,44.2,36.1,30.23,West,264,0.0,0.0,73,0.00,,,0.00,0.0,meteohub,2013-03-15 01:37:00,
2013-03-14 21:42:00,43.9,36.1,30.23,West,264,0.0,0.0,74,0.00,,,0.00,0.0,meteohub,2013-03-15 01:42:00,
2013-03-14 21:49:00,43.2,35.8,30.24,West,264,0.0,0.0,75,0.00,,,0.00,0.0,meteohub,2013-03-15 01:49:00,
2013-03-14 21:55:00,42.6,35.6,30.24,West,264,0.0,0.0,76,0.00,,,0.00,0.0,meteohub,2013-03-15 01:55:00,
2013-03-14 22:02:00,42.1,35.1,30.24,West,264,0.0,0.0,76,0.00,,,0.00,0.0,meteohub,2013-03-15 02:02:00,
2013-03-14 22:07:00,41.5,34.9,30.25,West,264,0.0,0.0,77,0.00,,,0.00,0.0,meteohub,2013-03-15 02:07:00,
2013-03-14 22:18:00,41.2,34.5,30.25,West,264,0.0,0.0,77,0.00,,,0.00,0.0,meteohub,2013-03-15 02:18:00,
2013-03-14 22:24:00,40.8,34.2,30.25,West,264,0.0,0.0,77,0.00,,,0.00,0.0,meteohub,2013-03-15 02:24:00,
2013-03-14 22:30:00,40.6,34.3,30.25,West,264,0.0,0.0,78,0.00,,,0.00,0.0,meteohub,2013-03-15 02:30:00,
2013-03-14 22:36:00,40.5,34.5,30.25,West,264,0.0,0.0,79,0.00,,,0.00,0.0,meteohub,2013-03-15 02:36:00,
2013-03-14 22:42:00,40.3,34.3,30.25,West,264,0.0,0.0,79,0.00,,,0.00,0.0,meteohub,2013-03-15 02:42:00,
2013-03-14 22:47:00,40.1,34.5,30.25,West,264,0.0,0.0,80,0.00,,,0.00,0.0,meteohub,2013-03-15 02:47:00,
2013-03-14 22:52:00,39.9,34.5,30.25,West,264,0.0,0.0,81,0.00,,,0.00,0.0,meteohub,2013-03-15 02:52:00,
2013-03-14 22:58:00,39.7,34.7,30.25,West,264,0.0,0.0,82,0.00,,,0.00,0.0,meteohub,2013-03-15 02:58:00,
2013-03-14 23:04:00,39.6,34.9,30.25,West,264,0.0,0.0,83,0.00,,,0.00,0.0,meteohub,2013-03-15 03:04:00,
2013-03-14 23:10:00,39.4,34.7,30.25,West,264,0.0,0.0,83,0.00,,,0.00,0.0,meteohub,2013-03-15 03:10:00,
2013-03-14 23:17:00,39.4,34.9,30.25,West,264,0.0,0.0,84,0.00,,,0.00,0.0,meteohub,2013-03-15 03:17:00,
2013-03-14 23:23:00,39.0,34.5,30.25,West,264,0.0,0.0,84,0.00,,,0.00,0.0,meteohub,2013-03-15 03:23:00,
2013-03-14 23:29:00,38.8,34.3,30.25,West,264,0.0,0.0,84,0.00,,,0.00,0.0,meteohub,2013-03-15 03:29:00,
2013-03-14 23:35:00,38.8,34.3,30.25,West,264,0.0,0.0,84,0.00,,,0.00,0.0,meteohub,2013-03-15 03:35:00,
2013-03-14 23:41:00,38.7,34.2,30.26,West,264,0.0,0.0,84,0.00,,,0.00,0.0,meteohub,2013-03-15 03:41:00,
2013-03-14 23:47:00,38.5,34.3,30.25,West,264,0.0,0.0,85,0.00,,,0.00,0.0,meteohub,2013-03-15 03:47:00,
2013-03-14 23:52:00,38.5,34.3,30.26,West,264,0.0,0.0,85,0.00,,,0.00,0.0,meteohub,2013-03-15 03:52:00,
2013-03-14 23:57:00,38.3,34.2,30.26,West,264,0.0,0.0,85,0.00,,,0.00,0.0,meteohub,2013-03-15 03:57:00,